DW9840 Weather Reports


Display with metric or nautical units.
time (UTC)temp
F
wind
direction
speed
MPH
gust
MPH
rain 1hr
in
rain 24hr
in
rain mn
in
humidity
%
barometer
mb
20190421004507 68 301 5.0 11.0 0.00 0.00 0.00 50 1011.1
20190421003011 69 219 4.0 16.0 0.00 0.00 0.00 48 1010.8
20190421001501 69 349 3.0 11.0 0.00 0.00 0.00 46 1010.7
20190421000201 69 354 4.0 12.0 0.00 0.00 0.00 45 1010.6
20190420234628 70 323 3.0 13.0 0.00 0.00 0.00 46 1010.5
20190420233120 70 288 5.0 11.0 0.00 0.00 0.00 40 1010.5
20190420231656 70 274 3.0 10.0 0.00 0.00 0.00 42 1010.5
20190420230140 69 333 4.0 14.0 0.00 0.00 0.00 42 1010.5
20190420224721 69 266 4.0 9.0 0.00 0.00 0.00 55 1010.6
20190420223049 69 269 1.0 10.0 0.00 0.00 0.00 54 1010.7
20190420221601 70 283 3.0 10.0 0.00 0.00 0.00 54 1010.8
20190420220103 70 256 2.0 6.0 0.00 0.00 0.00 52 1010.9
20190420214604 70 214 2.0 9.0 0.00 0.00 0.00 48 1011.1
20190420213135 69 109 2.0 11.0 0.00 0.00 0.00 51 1011.1
20190420211532 69 303 4.0 10.0 0.00 0.00 0.00 50 1011.2
20190420210016 69 276 1.0 8.0 0.00 0.00 0.00 51 1011.2
20190420204530 68 266 4.0 12.0 0.00 0.00 0.00 53 1011.2
20190420203133 68 14 2.0 8.0 0.00 0.00 0.00 52 1011.3
20190420201650 69 26 1.0 9.0 0.00 0.00 0.00 55 1011.2
20190420200255 68 279 2.0 12.0 0.00 0.00 0.00 56 1011.3
20190420194625 68 18 5.0 15.0 0.00 0.00 0.00 55 1011.5
20190420193104 68 336 6.0 11.0 0.00 0.00 0.00 55 1011.5
20190420191614 68 279 4.0 8.0 0.00 0.00 0.00 59 1011.6
20190420190100 68 274 4.0 12.0 0.00 0.00 0.00 58 1011.5
20190420184541 68 307 2.0 7.0 0.00 0.00 0.00 61 1011.6
20190420183048 66 340 3.0 10.0 0.00 0.00 0.00 61 1011.7
20190420181542 66 347 3.0 8.0 0.00 0.00 0.00 63 1011.7
20190420180024 65 343 2.0 8.0 0.00 0.00 0.00 68 1011.7
20190420174527 63 228 0.0 5.0 0.00 0.00 0.00 73 1011.6
20190420173011 62 354 0.0 5.0 0.00 0.00 0.00 74 1011.6
20190420171657 61 163 3.0 7.0 0.00 0.00 0.00 74 1011.5
20190420170159 61 269 3.0 9.0 0.00 0.00 0.00 75 1011.7
20190420164610 60 134 3.0 8.0 0.00 0.00 0.00 76 1011.6
20190420163110 60 208 4.0 10.0 0.00 0.00 0.00 73 1011.6
20190420161618 59 190 3.0 6.0 0.00 0.00 0.00 68 1011.5
20190420160055 58 170 1.0 6.0 0.00 0.00 0.00 58 1011.6
20190420154631 57 198 1.0 5.0 0.00 0.00 0.00 38 1011.7
20190420153059 57 213 1.0 4.0 0.00 0.00 0.00 12 1011.5
20190420151541 57 162 2.0 4.0 0.00 0.00 0.00 3 1011.6
20190420150107 56 156 1.0 2.0 0.00 0.00 0.00 3 1011.4
20190420144521 56 160 0.0 0.0 0.00 0.00 0.00 3 1011.3
20190420143045 0 0.0 0.0 0.00 0.00 0.00 1011.0
20190420141511 0 0.0 0.0 0.00 0.00 0.00 1010.9
20190420134750 0 0.0 0.0 0.00 0.00 0.00 1010.5
20190420133137 0 0.0 0.0 0.00 0.00 0.00 1010.5
20190420131707 0 0.0 0.0 0.00 0.00 0.00 1010.4
20190420130217 0 0.0 0.0 0.00 0.00 0.00 1010.3
20190420124648 0 0.0 0.0 0.00 0.00 0.00 1010.1
20190420123104 0 0.0 0.0 0.00 0.00 0.00 1010.0
20190420121559 56 204 4.0 7.0 0.00 0.00 0.00 3 1010.2
20190420120108 56 223 0.0 1.0 0.00 0.00 0.00 3 1010.1
20190420114540 56 165 2.0 6.0 0.00 0.00 0.00 3 1009.8
20190420113103 56 239 1.0 4.0 0.00 0.00 0.00 3 1010.1
20190420111523 56 214 2.0 4.0 0.00 0.00 0.00 3 1009.8
20190420110038 56 238 0.0 0.0 0.00 0.00 0.00 3 1009.9
20190420104523 56 290 0.0 0.0 0.00 0.00 0.00 3 1009.9
20190420103156 56 23 0.0 2.0 0.00 0.00 0.00 3 1009.8
20190420101643 56 139 0.0 0.0 0.00 0.00 0.00 3 1009.9
20190420100126 56 205 2.0 6.0 0.00 0.00 0.00 3 1009.8
20190420094635 56 174 1.0 7.0 0.00 0.00 0.00 3 1010.1
20190420093143 56 153 3.0 8.0 0.00 0.00 0.00 3 1010.1
20190420090044 56 177 1.0 4.0 0.00 0.00 0.00 3 1010.1
20190420084611 56 102 0.0 0.0 0.00 0.00 0.00 3 1010.3
20190420083040 56 218 0.0 0.0 0.00 0.00 0.00 3 1010.5
20190420081538 56 225 0.0 0.0 0.00 0.00 0.00 3 1010.6
20190420080020 56 205 0.0 0.0 0.00 0.00 0.00 3 1010.8
20190420074520 57 217 0.0 0.0 0.00 0.00 0.00 3 1010.8
20190420073012 57 218 0.0 0.0 0.00 0.00 0.00 3 1010.7
20190420071502 56 216 0.0 0.0 0.00 0.00 0.00 3 1010.6
20190420070208 56 195 0.0 0.0 0.00 0.00 0.00 3 1010.5
20190420064701 56 160 2.0 7.0 0.00 0.00 0.00 3 1010.4
20190420063157 56 226 1.0 5.0 0.00 0.00 0.00 3 1010.5
20190420061605 56 208 0.0 0.0 0.00 0.00 0.00 3 1010.3
20190420060119 56 217 2.0 5.0 0.00 0.00 0.00 3 1010.3
20190420054555 56 250 3.0 6.0 0.00 0.00 0.00 3 1010.3
20190420053056 56 190 2.0 4.0 0.00 0.00 0.00 4 1010.4
20190420051636 55 217 0.0 3.0 0.00 0.00 0.00 10 1010.3
20190420050119 55 203 0.0 0.0 0.00 0.00 0.00 17 1010.3
20190420044537 55 210 0.0 7.0 0.00 0.00 0.00 18 1010.3
20190420043130 55 214 4.0 10.0 0.00 0.00 0.00 20 1010.3
20190420041537 55 241 1.0 5.0 0.00 0.00 0.00 27 1010.1
20190420040107 55 233 0.0 4.0 0.00 0.00 0.00 26 1009.9
20190420034544 55 277 5.0 9.0 0.00 0.00 0.00 29 1009.9
20190420033025 55 158 4.0 8.0 0.00 0.00 0.00 41 1009.7
20190420031505 55 208 4.0 8.0 0.00 0.00 0.00 49 1009.6
20190420030153 56 214 2.0 5.0 0.00 0.00 0.00 59 1009.5
20190420024645 57 174 4.0 8.0 0.00 0.00 0.00 65 1009.5
20190420023122 58 190 5.0 13.0 0.00 0.00 0.00 71 1009.8
20190420021619 59 211 3.0 12.0 0.00 0.00 0.00 73 1009.8
20190420020134 60 228 4.0 10.0 0.00 0.00 0.00 75 1010.0
20190420014605 59 168 2.0 7.0 0.00 0.00 0.00 75 1009.9
20190420013108 58 238 3.0 11.0 0.00 0.00 0.00 75 1010.1
20190420011531 59 161 5.0 12.0 0.00 0.00 0.00 75 1010.3
20190420010027 60 204 6.0 13.0 0.00 0.00 0.00 74 1010.3